JO-97
1 43803U 18099AX  24328.47791273  .00019239  00000-0  10784-2 0  9990
2 43803  97.4988  24.0096 0009892 112.2389 247.9892 15.13391038326736
Suomi 100
1 43804U 18099AY  24328.43926930  .00019258  00000-0  11209-2 0  9991
2 43804  97.5060  23.6711 0015166 113.6008 246.6817 15.11979863326696
ISAT
1 43879U 18111D   24328.51035983  .00025939  00000-0  12566-2 0  9996
2 43879  97.6052 234.0927 0011557 156.8375 203.3381 15.18465967323520
UWE-4
1 43880U 18111E   24327.71413406  .00024831  00000-0  12718-2 0  9998
2 43880  97.5982 232.8302 0014250 173.3019 186.8406 15.16495534323397
Sparrow
1 43881U 18111F   24328.22187558  .00029988  00000-0  14232-2 0  9993
2 43881  97.6170 236.0511 0007165 194.6664 165.4363 15.19185353323556
Prox-1
1 44339U 19036A   24328.21637802  .00022740  00000-0  34312-2 0  9990
2 44339  23.9991 278.0461 0007574 337.3360  22.6800 14.72850431288667
SONATE
1 44400U 19038Q   24328.47800358  .00054132  00000-0  10314-2 0  9993
2 44400  97.7137 331.1400 0009135 251.5376 108.4881 15.47973500298591
Taurus 1
1 44530U 19059C   24328.78281057  .00013564  00000-0  28045-2 0  9997
2 44530  98.5885  93.8444 0010487 281.7308  78.2714 14.60412424275014
Duchifat 3
1 44854U 19089C   24328.79828639  .00037113  00000-0  13657-2 0  9992
2 44854  36.9507 153.3806 0011659 354.5755   5.4867 15.26910726272515
TO-108
1 44881U 19093C   24328.75612929  .00002851  00000-0  34225-3 0  9992
2 44881  97.8150  42.4353 0014610 155.6564 204.5344 14.84711877266714
FloripaSat 1
1 44885U 19093G   24328.76996483  .00012215  00000-0  11420-2 0  9993
2 44885  97.8308  50.4431 0012180 143.7719 216.4328 14.94216260267160
RS-44
1 44909U 19096E   24328.52312456  .00000018  00000-0  23452-4 0  9997
2 44909  82.5230 358.8980 0218143  38.9391 322.7194 12.79736182229356
UPMSat 2
1 46276U 20061E   24328.44422369  .00043886  00000-0  92880-3 0  9996
2 46276  97.2762  33.7057 0000126 316.6239  43.5000 15.44998788234660
AmicalSat
1 46287U 20061R   24328.18785967  .00216170  00000-0  19157-2 0  9998
2 46287  97.3221  37.8487 0001710 303.1379  56.9718 15.67918416234165
SALSAT
1 46495U 20068K   24328.83939739  .00013422  00000-0  66916-3 0  9997
2 46495  97.8379 292.7950 0014684 119.7174 240.5522 15.17582232228480
IDEASSat
1 47458U 21006AX  24328.60437682  .00514425  00000-0  17813-2 0  9995
2 47458  97.2959  31.9186 0003587 307.1040  52.9904 15.88256719213385
CubeSX-Sirius-HSE
1 47951U 21022V   24328.79413145  .00055629  00000-0  13749-2 0  9999
2 47951  97.4401 227.9408 0007552 306.0317  54.0229 15.40264199203002
CubeSX-HSE
1 47952U 21022W   24328.79323228  .00057464  00000-0  14035-2 0  9990
2 47952  97.4399 228.0777 0007402 303.5705  56.4834 15.40617702203018
KSU-Cubesat
1 47954U 21022Y   24328.17305189  .00101878  00000-0  18960-2 0  9990
2 47954  97.4396 229.9113 0004579 302.2124  57.8682 15.48486702202796
GRBAlpha
1 47959U 21022AD  24328.81613350  .00059877  00000-0  14623-2 0  9991
2 47959  97.4398 228.2691 0007417 303.3613  56.6922 15.40608988201848
Orbicraft-Zorkiy
1 47960U 21022AE  24328.82065617  .00079095  00000-0  16256-2 0  9999
2 47960  97.4441 230.3856 0005540 303.9226  56.1495 15.45688585202642
TUBIN
1 48900U 21059X   24328.74626823  .00038376  00000-0  93609-3 0  9992
2 48900  97.6616 119.3281 0005427 241.1078 118.9624 15.40768215189394
LEDSAT
1 49069U 21073D   24328.61809072  .00044588  00000-0  12493-2 0  9993
2 49069  97.4184  39.6258 0015668  78.1272 282.1728 15.36355088180822
CUTE
1 49263U 21088D   24328.46091097  .00053540  00000-0  17019-2 0  9995
2 49263  97.4774  34.4406 0010473 238.3967 121.6253 15.32386282173919
TeikyoSat 4
1 49396U 21102B   24328.13897694  .00005791  00000-0  40038-3 0  9993
2 49396  97.4394   7.6042 0014287  93.2012 267.0850 15.06008970166666
Z-Sat
1 49399U 21102E   24328.74148635  .00009138  00000-0  54274-3 0  9993
2 49399  97.4108  10.2418 0020627  70.4210 289.9245 15.11342396167066
KOSEN 1
1 49402U 21102H   24328.07547499  .00014815  00000-0  77895-3 0  9997
2 49402  97.4028  11.7236 0018596  54.5623 305.7343 15.15614562167178
HO-113
1 50466U 21131B   24328.80946793  .00001493  00000-0  48539-3 0  9993
2 50466  98.5221  53.1364 0004344  23.6923 336.4464 14.40274792152976
IRIS-A
1 51044U 22002BN  24327.94491032  .00065724  00000-0  13518-2 0  9994
2 51044  97.3632  35.0444 0004495 178.4889 181.6375 15.45729129158812
Planetum 1
1 52738U 22057G   24327.94337226  .01203067  78324-3  21338-2 0  9990
2 52738  97.5616 103.9439 0010239 293.7813  66.2392 16.01968299139280
Foresail-1
1 52766U 22057AL  24328.55753303  .00054502  00000-0  11090-2 0  9991
2 52766  97.5966  99.3863 0007857 282.0040  78.0327 15.46072684138946
SNUGLITE 2
1 52899U 22065F   24328.38401220  .00003357  00000-0  67725-3 0  9995
2 52899  98.1413 106.7937 0007863  22.5717 337.5828 14.62076686127510
IO-117
1 53106U 22080B   24323.52137211 -.00000003  00000-0  00000+0 0  9996
2 53106  70.1294 138.9057 0008387  72.7310 287.4267  6.42557804 55185
FO-118
1 54684U 22167C   24328.79491163  .00108217  00000-0  17547-2 0  9999
2 54684  97.6154 119.6687 0009012 292.8694  67.1606 15.52339672108841
SSS-2B
1 56184U 23054G   24328.72218642  .00345184  00000-0  19238-2 0  9999
2 56184  97.3396 230.7861 0004312  78.6232 281.5519 15.78483318 90905
SO-120
1 56992U 23084BU  24328.57265109  .00139268  00000-0  21564-2 0  9991
2 56992  97.5373  92.0487 0006998 195.6619 164.4418 15.53528208 80674
MRC-100
1 56993U 23084BV  24327.82242457  .00264568  00000-0  26653-2 0  9996
2 56993  97.5335  92.7671 0005855 219.3046 140.7788 15.64538683 80660
UmKA 1 (RS40S)
1 57172U 23091G   24328.79090968  .00009975  00000-0  59505-3 0  9991
2 57172  97.5906  19.4037 0014399 298.5953  61.3827 15.11262991 77560
CubeBel-2 (EU11S)
1 57175U 23091K   24328.81065932  .00015515  00000-0  87373-3 0  9991
2 57175  97.5908  19.6725 0012733 310.7545  49.2579 15.13245737 77587
VERONIKA
1 58261U 23174F   24328.74546987  .00052387  00000-0  15610-2 0  9998
2 58261  97.4430  43.1713 0009373  41.0156 319.1790 15.34460375 58055
KAFASAT
1 58317U 23174BP  24328.74576738  .00086207  00000-0  19212-2 0  9997
2 58317  97.4357  44.8728 0007367   7.4357 352.6998 15.43250784 58186
ENSO
1 58470U 23185J   24328.81537529  .00040097  00000-0  12039-2 0  9999
2 58470  97.4056  34.7347 0010740  75.3258 284.9175 15.34271351 54510
EIRSAT-1
1 58472U 23185L   24328.79883149  .00047328  00000-0  13282-2 0  9995
2 58472  97.4051  35.0268 0009954  74.9240 285.3105 15.36364784 54539
SONATE-2
1 59112U 24043Q   24327.85339222  .00024350  00000-0  95266-3 0  9998
2 59112  97.4941  90.8528 0013719  98.9875 261.2916 15.25738905 39939
MO-122
1 60209U 24125G   24328.02906717  .00027751  00000-0  10775-2 0  9996
2 60209  97.3002 177.0011 0024510 122.6468 237.7140 15.25766220 21573
GRBBeta
1 60237U 24128C   24328.76988379  .00008068  00000-0  66530-3 0  9996
2 60237  61.9947  47.6549 0028026   6.2480 353.8953 14.99432345 20506
Curium One
1 60242U 24128H   24328.80446750  .00012309  00000-0  99443-3 0  9991
2 60242  61.9852  47.6592 0028299 357.1651   2.9273 14.99860515 20517
ROBUSTA-3A
1 60243U 24128J   24328.22537970  .00014417  00000-0  11723-2 0  9999
2 60243  61.9916  49.9486 0026264 354.2421   5.8362 14.99550782 20422
CatSat
1 60246U 24125J   24328.52067687  .00018592  00000-0  74587-3 0  9991
2 60246  97.2814 178.3397 0050540  77.0811 283.6065 15.23834534 19757
CosmoGirlSat
1 60953U 98067WT  24328.01717082  .00613828  00000-0  21108-2 0  9990
2 60953  51.6218 239.5488 0009901 181.2096 178.8886 15.87472550 13401
Sakura
1 60954U 98067WU  24328.00159946  .01206815  76881-3  22365-2 0  9993
2 60954  51.6181 237.9127 0010577 185.5812 174.5082 16.00532876 13424
CySat-1
1 61501U 98067WZ  24328.17982889  .00238602  00000-0  22297-2 0  9999
2 61501  51.6328 245.1892 0011112 188.2972 171.7842 15.65911221  7172
DORA
1 61502U 98067XA  24328.78458749  .01546523  12527-2  39154-2 0  9994
2 61502  51.6155 239.4379 0015782 188.5517 171.5224 15.94923086  7291
